This is the latest recevied weather packets stored in our database for station/object IZ1UQG-N2. If no packets are shown the sender has not sent any weather packets the latest 1 day(s).
| Time | Temp. | Humidity | Pressure | Rain* | Wind** | Luminosity | Snow |
|---|---|---|---|---|---|---|---|
| 1777983350 | 12.22° C | 88% | 1012 hPa | 0 mm | 0.89 m/s, 357° | 98 W/m² | - |
| 1777983308 | 12.22° C | 88% | 1012 hPa | 0 mm | 0.89 m/s, 357° | 98 W/m² | - |
| 1777983289 | 12.22° C | 88% | 1012 hPa | 0 mm | 0.89 m/s, 358° | 98 W/m² | - |
| 1777983231 | 12.22° C | 88% | 1012 hPa | 0 mm | 0.89 m/s, 358° | 97 W/m² | - |
| 1777983171 | 12.22° C | 88% | 1012 hPa | 0 mm | 0.89 m/s, 355° | 97 W/m² | - |
| 1777983128 | 12.22° C | 88% | 1012 hPa | 0 mm | 0.89 m/s, 355° | 97 W/m² | - |
| 1777983110 | 12.22° C | 88% | 1012.1 hPa | 0 mm | 0.89 m/s, 358° | 97 W/m² | - |
| 1777983050 | 12.22° C | 88% | 1012.1 hPa | 0 mm | 0.89 m/s, 358° | 97 W/m² | - |
| 1777982990 | 12.22° C | 88% | 1011.9 hPa | 0.25 mm | 0.89 m/s, 6° | 97 W/m² | - |
| 1777982948 | 12.22° C | 88% | 1011.9 hPa | 0.25 mm | 0.89 m/s, 6° | 97 W/m² | - |
| 1777982929 | 12.22° C | 88% | 1012 hPa | 0.25 mm | 0.89 m/s, 8° | 98 W/m² | - |
| 1777982869 | 12.22° C | 88% | 1012 hPa | 0.25 mm | 0.89 m/s, 12° | 100 W/m² | - |
| 1777982809 | 12.22° C | 88% | 1012 hPa | 0.25 mm | 0.89 m/s, 14° | 104 W/m² | - |
| 1777982767 | 12.22° C | 88% | 1012 hPa | 0.25 mm | 0.89 m/s, 14° | 104 W/m² | - |
| 1777982749 | 12.22° C | 88% | 1012 hPa | 0.25 mm | 0.89 m/s, 16° | 105 W/m² | - |
| 1777982691 | 12.22° C | 88% | 1012 hPa | 0.25 mm | 0.89 m/s, 12° | 111 W/m² | - |
| 1777982630 | 12.22° C | 88% | 1012.1 hPa | 0.25 mm | 0.89 m/s, 11° | 113 W/m² | - |
| 1777982588 | 12.22° C | 88% | 1012.1 hPa | 0.25 mm | 0.89 m/s, 11° | 113 W/m² | - |
| 1777982570 | 12.22° C | 88% | 1012 hPa | 0.25 mm | 0.89 m/s, 12° | 114 W/m² | - |
| 1777982510 | 12.22° C | 88% | 1012.1 hPa | 0.25 mm | 1.34 m/s, 10° | 116 W/m² | - |
| 1777982449 | 12.22° C | 88% | 1012.1 hPa | 0.25 mm | 1.34 m/s, 9° | 118 W/m² | - |
| 1777982407 | 12.22° C | 88% | 1012.1 hPa | 0.25 mm | 1.34 m/s, 9° | 118 W/m² | - |
| 1777982391 | 12.22° C | 88% | 1012.2 hPa | 0.25 mm | 1.34 m/s, 9° | 123 W/m² | - |
| 1777982330 | 12.22° C | 88% | 1012.1 hPa | 0.25 mm | 1.34 m/s, 10° | 132 W/m² | - |
| 1777982270 | 12.22° C | 88% | 1012.1 hPa | 0.25 mm | 1.34 m/s, 8° | 134 W/m² | - |
* Rain latest hour (hover to see other rain measurements)
** Current wind speed in m/s (hover to see current wind gust speed)